[[{"header":{"parameterUnit":"m.s-1","parameterCategory":1,"la1":30.2991,"la2":30.254,"lo1":-89.0895,"lo2":-89.0444,"dy":0.0017,"dx":0.0017,"nx":28,"ny":28,"refTime":"2023-08-18T21:00:00:Z","depth":0,"parameterNumber":2,"parameterNumberName":"U-component_of_WINDS"},"data":[0,0,0,0,0,0,0,0,0,0,0,0,0,0,0,0,0,0,0,0,0,0,0,0,0,0,0,0,0,0,0,0,0,0,0,0,0,0,0,0,0,0,0,0,0,0,0,0,0,0,0,0,0,0,0,0,0,0,-1.4514,-1.4514,0,-1.4507,-1.4507,-1.4507,-1.4487,-1.4487,-1.4486,-1.4486,-1.4477,-1.4477,-1.4477,0,0,0,0,0,0,0,0,0,0,0,0,0,-1.4512,-1.4512,-1.4514,-1.4514,-1.4514,-1.4507,-1.4507,-1.4506,-1.4487,-1.4487,-1.4486,-1.4486,-1.4477,-1.4477,-1.4477,0,0,0,0,0,0,0,0,0,0,0,0,0,-1.4509,-1.4512,-1.4514,-1.4504,-1.4503,-1.4507,-1.4507,-1.4506,-1.4487,-1.4487,-1.4486,-1.4486,-1.4477,-1.4477,-1.4477,-1.4491,0,0,-1.4478,-1.4478,0,0,0,0,0,0,0,0,-1.4509,-1.4509,-1.4505,-1.4504,-1.4503,-1.4497,-1.4502,-1.4501,-1.4488,-1.4493,-1.4486,-1.4485,-1.4484,-1.4484,-1.4484,-1.449,-1.449,-1.4478,-1.4478,-1.4478,-1.4478,0,0,0,0,0,0,0,-1.451,-1.451,-1.4511,-1.4505,-1.4504,-1.4499,-1.4498,-1.4502,-1.4492,-1.4493,-1.4491,-1.4491,-1.4483,-1.4483,-1.4483,-1.449,-1.4478,-1.4478,-1.4478,-1.4478,-1.4508,-1.4509,0,0,0,0,0,0,-1.4511,-1.451,-1.4511,-1.4511,-1.4505,-1.45,-1.4499,-1.45,-1.4492,-1.449,-1.4491,-1.449,-1.4483,-1.4483,-1.4483,-1.4499,-1.4478,-1.4478,-1.4478,-1.4507,-1.4508,-1.4509,0,0,0,0,0,0,-1.4511,-1.4512,-1.4512,-1.451,-1.451,-1.45,-1.4502,-1.45,-1.45,-1.4491,-1.4489,-1.4493,-1.4483,-1.4483,-1.4489,-1.4498,-1.4478,-1.4479,-1.4507,-1.4508,-1.4509,-1.453,0,0,0,0,0,0,-1.4511,-1.4512,-1.4517,-1.451,-1.451,-1.4518,-1.4502,-1.45,-1.45,-1.4499,-1.4492,-1.449,-1.4482,-1.4489,-1.4489,-1.4498,-1.4479,-1.4506,-1.4507,-1.4508,-1.4528,-1.4531,-1.4534,0,0,0,0,0,-1.4511,-1.4523,-1.4517,-1.4517,-1.4516,-1.4519,-1.4519,-1.4509,-1.4501,-1.4506,-1.4501,-1.4491,-1.4497,-1.449,-1.449,-1.4499,-1.4505,-1.4507,-1.4508,-1.4527,-1.4531,-1.4534,0,0,0,0,0,0,-1.453,-1.4521,-1.4515,-1.4525,-1.4523,-1.4516,-1.4521,-1.4514,-1.4513,-1.4512,-1.45,-1.4499,-1.4507,-1.4504,-1.4496,-1.4512,-1.45,-1.4501,-1.4514,-1.4517,-1.452,-1.4521,-1.4479,0,0,0,0,0,-1.4535,-1.4538,-1.4531,-1.454,-1.4539,-1.4531,-1.4532,-1.4525,-1.4522,-1.4521,-1.4516,-1.4513,-1.4515,-1.4516,-1.4517,-1.4528,-1.4526,-1.4534,-1.4537,-1.4539,-1.4541,-1.4547,-1.4551,-1.4514,-1.4514,-1.4514,0,0,-1.4545,-1.4541,-1.4544,-1.4544,-1.4541,-1.4545,-1.453,-1.4534,-1.4537,-1.4521,-1.4528,-1.4524,-1.452,-1.453,-1.4533,-1.4527,-1.4551,-1.4541,-1.4543,-1.4543,-1.4549,-1.4553,-1.4556,-1.4515,-1.4515,-1.4514,0,0,-1.4566,-1.4564,-1.4571,-1.457,-1.4567,-1.4561,-1.4563,-1.4558,-1.4555,-1.4561,-1.455,-1.4553,-1.4555,-1.4553,-1.4553,-1.4575,-1.4566,-1.4575,-1.459,-1.4597,-1.46,-1.4602,-1.461,-1.4613,-1.4577,-1.4577,-1.4577,0,-1.458,-1.4585,-1.4576,-1.4582,-1.4582,-1.4569,-1.4577,-1.4576,-1.4573,-1.4573,-1.4566,-1.457,-1.4567,-1.4576,-1.4581,-1.4581,-1.4583,-1.4576,-1.46,-1.4603,-1.4605,-1.4612,-1.4616,-1.4578,-1.4578,-1.4578,-1.4578,0,-1.4602,-1.4606,-1.4612,-1.4611,-1.4612,-1.4619,-1.4611,-1.4613,-1.4607,-1.4602,-1.4609,-1.4605,-1.4605,-1.4606,-1.46,-1.4615,-1.4611,-1.4602,-1.459,-1.461,-1.4617,-1.462,-1.458,-1.458,-1.4579,-1.4579,0,0,-1.4633,-1.4628,-1.463,-1.463,-1.4626,-1.4629,-1.4636,-1.4636,-1.4639,-1.4637,-1.4643,-1.4646,-1.4638,-1.4638,-1.4631,-1.4636,-1.4655,-1.4627,-1.4627,-1.4633,-1.4672,-1.4678,-1.4682,-1.4649,-1.465,-1.465,-1.4672,0,-1.4653,-1.4664,-1.4657,-1.4668,-1.4672,-1.4661,-1.4667,-1.4665,-1.4661,-1.4664,-1.4659,-1.4662,-1.4652,-1.4651,-1.4656,-1.4652,-1.4663,-1.465,-1.4654,-1.4654,-1.4655,-1.4685,-1.4692,-1.4713,-1.4675,-1.4675,-1.4675,0,-1.4677,-1.4679,-1.4691,-1.4688,-1.4689,-1.4694,-1.4695,-1.4698,-1.4696,-1.4693,-1.4693,-1.4685,-1.4691,-1.4679,-1.4688,-1.4679,-1.4681,-1.4679,-1.4679,-1.4679,-1.4666,-1.4686,-1.4719,-1.4722,-1.468,-1.4679,-1.4679,0,-1.4699,-1.4704,-1.4712,-1.4712,-1.4708,-1.4712,-1.4711,-1.4709,-1.471,-1.4711,-1.4712,-1.4713,-1.4713,-1.4715,-1.4707,-1.4699,-1.4717,-1.4704,-1.4714,-1.4714,-1.4718,-1.4718,-1.4752,-1.4719,-1.4719,-1.4719,-1.4719,0,-1.4722,-1.473,-1.4722,-1.4727,-1.4736,-1.4728,-1.4737,-1.4734,-1.4733,-1.4737,-1.4727,-1.4732,-1.4722,-1.4725,-1.472,-1.4728,-1.4728,-1.4726,-1.4724,-1.4726,-1.4727,-1.4727,-1.4725,-1.472,-1.472,-1.4719,-1.4719,0,-1.4748,-1.4742,-1.4751,-1.4747,-1.4747,-1.4753,-1.475,-1.4755,-1.4751,-1.4757,-1.4757,-1.4751,-1.4755,-1.4748,-1.475,-1.4747,-1.4758,-1.4754,-1.4759,-1.4758,-1.4768,-1.4767,-1.4803,-1.4808,-1.4772,-1.4773,-1.4773,0,-1.4762,-1.4769,-1.4766,-1.4769,-1.4768,-1.4772,-1.4774,-1.4767,-1.4769,-1.4768,-1.4773,-1.4776,-1.4778,-1.4784,-1.478,-1.4782,-1.4778,-1.479,-1.4778,-1.4781,-1.4778,-1.4778,-1.4779,-1.4793,-1.4793,-1.4794,-1.4794,0,-1.4789,-1.4787,-1.479,-1.4793,-1.4795,-1.4797,-1.4797,-1.48,-1.4793,-1.4796,-1.48,-1.4801,-1.4804,-1.4808,-1.4809,-1.4807,-1.4799,-1.4798,-1.4801,-1.4803,-1.4805,-1.4804,-1.4766,-1.4797,-1.4797,-1.4796,-1.4796,-1.4796,-1.481,-1.4815,-1.4815,-1.4819,-1.4819,-1.482,-1.4825,-1.4822,-1.4826,-1.4828,-1.4824,-1.4829,-1.4828,-1.4829,-1.4828,-1.4832,-1.4827,-1.483,-1.4831,-1.4832,-1.4834,-1.4805,-1.4833,-1.4832,-1.4832,-1.4832,-1.4832,0,-1.4836,-1.4836,-1.484,-1.4842,-1.4845,-1.4839,-1.484,-1.4843,-1.4848,-1.4848,-1.4851,-1.4856,-1.4859,-1.4856,-1.4858,-1.4862,-1.4859,-1.4863,-1.4863,-1.4863,-1.4839,-1.4836,-1.4866,-1.4866,-1.4866,-1.4866,-1.4866,-1.4866,-1.4851,-1.486,-1.4857,-1.4867,-1.4866,-1.4872,-1.4873,-1.4874,-1.4874,-1.4881,-1.4884,-1.4882,-1.4881,-1.4883,-1.4886,-1.4885,-1.4887,-1.4892,-1.489,-1.4868,-1.4864,-1.4861,-1.4859,-1.4893,-1.4893,-1.4914,-1.4914,-1.4914]},{"header":{"parameterUnit":"m.s-1","parameterCategory":1,"la1":30.2991,"la2":30.254,"lo1":-89.0895,"lo2":-89.0444,"dy":0.0017,"dx":0.0017,"nx":28,"ny":28,"refTime":"2023-08-18T21:00:00:Z","depth":0,"parameterNumber":3,"parameterNumberName":"V-component_of_WINDS"},"data":[0,0,0,0,0,0,0,0,0,0,0,0,0,0,0,0,0,0,0,0,0,0,0,0,0,0,0,0,0,0,0,0,0,0,0,0,0,0,0,0,0,0,0,0,0,0,0,0,0,0,0,0,0,0,0,0,0,0,-1.4422,-1.4422,0,-1.4443,-1.4443,-1.4443,-1.4428,-1.4428,-1.4427,-1.4426,-1.4448,-1.4449,-1.445,0,0,0,0,0,0,0,0,0,0,0,0,0,-1.4368,-1.4369,-1.4422,-1.4422,-1.4422,-1.4443,-1.4443,-1.4443,-1.4428,-1.4428,-1.4427,-1.4426,-1.4448,-1.4449,-1.4451,0,0,0,0,0,0,0,0,0,0,0,0,0,-1.4391,-1.437,-1.4421,-1.4417,-1.4417,-1.4443,-1.4443,-1.4443,-1.4429,-1.4428,-1.4427,-1.4426,-1.4447,-1.4449,-1.4451,-1.4482,0,0,-1.4456,-1.4457,0,0,0,0,0,0,0,0,-1.4389,-1.4393,-1.4417,-1.4417,-1.4417,-1.4432,-1.4432,-1.4456,-1.4429,-1.4424,-1.4426,-1.4425,-1.4443,-1.4446,-1.4452,-1.4483,-1.4484,-1.4456,-1.4457,-1.4458,-1.4459,0,0,0,0,0,0,0,-1.4388,-1.4392,-1.443,-1.4418,-1.4418,-1.4414,-1.4416,-1.4437,-1.4439,-1.4424,-1.4423,-1.4426,-1.4443,-1.445,-1.4452,-1.4484,-1.4456,-1.4458,-1.4459,-1.446,-1.4543,-1.4544,0,0,0,0,0,0,-1.4387,-1.439,-1.4429,-1.4431,-1.4401,-1.4416,-1.4418,-1.4428,-1.4439,-1.444,-1.4427,-1.4425,-1.4447,-1.445,-1.4453,-1.4491,-1.4458,-1.446,-1.4461,-1.4542,-1.4543,-1.4545,0,0,0,0,0,0,-1.4386,-1.439,-1.4428,-1.441,-1.4415,-1.4418,-1.4429,-1.4429,-1.4436,-1.4441,-1.4441,-1.4433,-1.4447,-1.445,-1.4475,-1.4492,-1.4461,-1.4462,-1.4541,-1.4543,-1.4544,-1.4568,0,0,0,0,0,0,-1.4384,-1.439,-1.4402,-1.4411,-1.4416,-1.445,-1.443,-1.443,-1.4439,-1.4437,-1.4447,-1.4448,-1.4446,-1.4472,-1.4477,-1.4494,-1.4464,-1.4539,-1.4542,-1.4544,-1.4566,-1.457,-1.4574,0,0,0,0,0,-1.4382,-1.4407,-1.4403,-1.4407,-1.4431,-1.4451,-1.4454,-1.4452,-1.444,-1.4453,-1.4456,-1.4447,-1.4489,-1.4475,-1.448,-1.4498,-1.4538,-1.4541,-1.4543,-1.4564,-1.4569,-1.4574,0,0,0,0,0,0,-1.4401,-1.4408,-1.4403,-1.4432,-1.4441,-1.4449,-1.4464,-1.4458,-1.4471,-1.4468,-1.4465,-1.4467,-1.4494,-1.4498,-1.4482,-1.4529,-1.4512,-1.4515,-1.4525,-1.4531,-1.4535,-1.4534,-1.4465,0,0,0,0,0,-1.4408,-1.4424,-1.443,-1.4455,-1.446,-1.4461,-1.447,-1.4467,-1.4477,-1.4481,-1.4485,-1.4495,-1.451,-1.452,-1.4535,-1.4565,-1.4568,-1.458,-1.4584,-1.4587,-1.4591,-1.4609,-1.4615,-1.4553,-1.4553,-1.4553,0,0,-1.4423,-1.443,-1.444,-1.4459,-1.4465,-1.4483,-1.4464,-1.4483,-1.4496,-1.4483,-1.4508,-1.4511,-1.4522,-1.455,-1.4563,-1.4554,-1.4609,-1.4591,-1.4593,-1.4595,-1.4612,-1.4618,-1.4623,-1.4555,-1.4554,-1.4554,0,0,-1.4461,-1.4466,-1.4488,-1.4496,-1.4506,-1.4507,-1.4512,-1.4521,-1.4523,-1.4547,-1.4539,-1.4553,-1.4579,-1.4588,-1.4595,-1.4635,-1.4629,-1.464,-1.4663,-1.468,-1.4685,-1.4689,-1.4705,-1.4711,-1.4643,-1.4643,-1.4643,0,-1.4479,-1.4504,-1.45,-1.452,-1.4529,-1.4518,-1.4541,-1.4548,-1.4562,-1.4569,-1.4559,-1.4592,-1.4598,-1.4629,-1.4639,-1.4645,-1.4651,-1.464,-1.4684,-1.4689,-1.4693,-1.4708,-1.4714,-1.4645,-1.4645,-1.4644,-1.4644,0,-1.4526,-1.4544,-1.456,-1.4576,-1.4586,-1.4607,-1.4606,-1.4617,-1.4614,-1.4616,-1.4641,-1.4647,-1.4663,-1.467,-1.4666,-1.47,-1.4695,-1.4685,-1.4668,-1.47,-1.4714,-1.472,-1.4647,-1.4646,-1.4646,-1.4646,0,0,-1.4577,-1.459,-1.4596,-1.4603,-1.4614,-1.4627,-1.4648,-1.4663,-1.4674,-1.4684,-1.4701,-1.4724,-1.4714,-1.4723,-1.472,-1.4735,-1.4768,-1.4723,-1.4723,-1.4733,-1.4808,-1.4817,-1.4823,-1.4763,-1.4764,-1.4765,-1.4807,0,-1.4616,-1.4652,-1.465,-1.4684,-1.4701,-1.4691,-1.4709,-1.4717,-1.4719,-1.4734,-1.4736,-1.4753,-1.4738,-1.4744,-1.4758,-1.4761,-1.4784,-1.4758,-1.4781,-1.4782,-1.478,-1.4831,-1.484,-1.488,-1.4813,-1.4814,-1.4814,0,-1.4667,-1.468,-1.4716,-1.4725,-1.4732,-1.4748,-1.4763,-1.4776,-1.4786,-1.4786,-1.4796,-1.4791,-1.4812,-1.4793,-1.4822,-1.4805,-1.4814,-1.4817,-1.4818,-1.4822,-1.4801,-1.4837,-1.4892,-1.4899,-1.4823,-1.4822,-1.4821,0,-1.4703,-1.4728,-1.4754,-1.476,-1.477,-1.4782,-1.4787,-1.4796,-1.4805,-1.4818,-1.4824,-1.4839,-1.4847,-1.4859,-1.4857,-1.4844,-1.4888,-1.4869,-1.489,-1.489,-1.4901,-1.4901,-1.496,-1.4904,-1.4904,-1.4903,-1.4903,0,-1.4748,-1.4771,-1.477,-1.4786,-1.4811,-1.4807,-1.4833,-1.4836,-1.4844,-1.486,-1.4852,-1.4867,-1.4864,-1.4879,-1.4878,-1.4904,-1.4907,-1.4909,-1.4909,-1.4911,-1.4911,-1.4918,-1.4916,-1.4905,-1.4905,-1.4904,-1.4904,0,-1.4793,-1.4793,-1.482,-1.4828,-1.483,-1.4849,-1.4855,-1.487,-1.4871,-1.4892,-1.4897,-1.4899,-1.4917,-1.4916,-1.4937,-1.4936,-1.4968,-1.4963,-1.4965,-1.4964,-1.4986,-1.4985,-1.5054,-1.5063,-1.4999,-1.5,-1.5,0,-1.4822,-1.484,-1.485,-1.486,-1.4866,-1.4883,-1.4893,-1.489,-1.4901,-1.4913,-1.4927,-1.4944,-1.4958,-1.4987,-1.499,-1.5006,-1.5003,-1.5026,-1.5005,-1.5007,-1.5005,-1.5005,-1.5007,-1.503,-1.5031,-1.5032,-1.5032,0,-1.4876,-1.4875,-1.489,-1.4905,-1.4918,-1.4929,-1.494,-1.4949,-1.4947,-1.4959,-1.4978,-1.4988,-1.5009,-1.5027,-1.5042,-1.5047,-1.504,-1.5038,-1.5044,-1.5048,-1.5049,-1.505,-1.4978,-1.5037,-1.5037,-1.5036,-1.5036,-1.5036,-1.4915,-1.4931,-1.494,-1.4957,-1.4965,-1.4975,-1.499,-1.4993,-1.5009,-1.5026,-1.5022,-1.5043,-1.5053,-1.5072,-1.5079,-1.5095,-1.5087,-1.5095,-1.5098,-1.51,-1.5104,-1.5044,-1.5097,-1.5097,-1.5097,-1.5097,-1.5097,0,-1.497,-1.4975,-1.4991,-1.5007,-1.502,-1.5011,-1.5023,-1.5035,-1.5054,-1.5063,-1.5077,-1.5098,-1.5115,-1.5119,-1.5136,-1.5148,-1.5145,-1.5153,-1.5153,-1.5154,-1.5109,-1.5103,-1.5155,-1.5155,-1.5155,-1.5155,-1.5155,-1.5155,-1.5,-1.5026,-1.5027,-1.5057,-1.5062,-1.5083,-1.509,-1.51,-1.5107,-1.5132,-1.5146,-1.5149,-1.5156,-1.5173,-1.5188,-1.5189,-1.5196,-1.5206,-1.5205,-1.5163,-1.5157,-1.5152,-1.5146,-1.5207,-1.5207,-1.525,-1.525,-1.525]}]]